EW3156 Weather Reports


time (UTC)temp
C
wind
direction
speed
KPH
gust
KPH
rain 1hr
cm
rain 24hr
cm
rain mn
cm
humidity
%
barometer
mb
20260903100035 23 110 0.0 0.0 0.00 0.00 0.00 97 1015.4
20260903094544 23 110 0.0 0.0 0.00 0.00 0.00 97 1015.5
20260903093029 23 110 0.0 0.0 0.00 0.00 0.00 97 1015.4
20260903091538 23 110 0.0 0.0 0.00 0.00 0.00 97 1015.4
20260903090023 24 110 0.0 0.0 0.00 0.00 0.00 96 1015.4
20260903084522 24 110 0.0 0.0 0.00 0.00 0.00 96 1015.4
20260903083022 24 110 0.0 0.0 0.00 0.00 0.00 96 1015.4
20260903081523 24 110 0.0 0.0 0.00 0.00 0.00 96 1015.3
20260903080019 24 110 0.0 0.0 0.00 0.00 0.00 95 1015.2
20260903074518 24 110 0.0 0.0 0.00 0.00 0.00 95 1015.3
20260903073030 24 110 0.0 0.0 0.00 0.00 0.00 95 1015.3
20260903071526 25 110 0.0 0.0 0.00 0.00 0.00 94 1015.3
20260903070015 25 110 0.0 0.0 0.00 0.00 0.00 94 1015.3
20260903064512 25 110 0.0 0.0 0.00 0.00 0.00 93 1015.3
20260903063012 25 110 0.0 0.0 0.00 0.00 0.00 93 1015.4
20260903061510 25 110 0.0 0.0 0.00 0.00 0.00 92 1015.5
20260903060009 25 110 0.0 0.0 0.00 0.00 0.00 92 1015.5
20260903054507 25 110 0.0 0.0 0.00 0.00 0.00 91 1015.4
20260903053005 25 110 0.0 0.0 0.00 0.00 0.00 90 1015.5
20260903051503 25 110 0.0 0.0 0.00 0.00 0.00 90 1015.5
20260903050002 26 110 0.0 0.0 0.00 0.00 0.00 89 1015.5
20260903044602 26 110 0.0 0.0 0.00 0.00 0.00 88 1015.5
20260903044502 26 110 0.0 0.0 0.00 0.00 0.00 88 1015.5
20260903043201 26 110 0.0 0.0 0.00 0.00 0.00 87 1015.5
20260903041605 26 110 0.0 0.0 0.00 0.00 0.00 86 1015.6
20260903040101 26 110 0.0 0.0 0.00 0.00 0.00 85 1015.5
20260903034557 26 110 0.0 0.0 0.00 0.00 0.00 85 1015.6
20260903033057 27 110 0.0 0.0 0.00 0.00 0.00 84 1015.5
20260903031559 27 110 0.0 0.0 0.00 0.00 0.00 83 1015.6
20260903030056 27 110 0.0 0.0 0.00 0.00 0.00 82 1015.6
20260903024559 27 110 0.0 0.0 0.00 0.00 0.00 80 1015.6
20260903023055 28 110 0.0 0.0 0.00 0.00 0.00 78 1015.5
20260903021554 28 110 0.0 0.0 0.00 0.00 0.00 77 1015.5
20260903020054 28 110 0.0 0.0 0.00 0.00 0.00 77 1015.4
20260903014555 28 110 0.0 1.6 0.00 0.00 0.00 76 1015.3
20260903013105 29 110 0.0 0.0 0.00 0.00 0.00 74 1015.0
20260903011552 30 110 0.0 0.0 0.00 0.00 0.00 73 1014.9
20260903010052 30 110 0.0 1.6 0.00 0.00 0.00 71 1014.7
20260903004554 30 110 0.0 1.6 0.00 0.00 0.00 70 1014.7
20260903003053 31 110 0.0 1.6 0.00 0.00 0.00 67 1014.7
20260903001550 31 110 0.0 0.0 0.00 0.00 0.00 66 1014.6
20260903000050 32 110 0.0 1.6 0.00 0.00 0.00 63 1014.6
20260902234607 32 110 0.0 1.6 0.00 0.00 0.00 61 1014.5
20260902233049 33 110 0.0 1.6 0.00 0.00 0.00 59 1014.5
20260902231552 33 110 0.0 3.2 0.00 0.00 0.00 57 1014.4
20260902230050 34 82 0.0 4.8 0.00 0.00 0.00 55 1014.4
20260902224606 34 65 3.2 9.7 0.00 0.00 0.00 54 1014.5
20260902223045 35 86 0.0 8.0 0.00 0.00 0.00 54 1014.6
20260902221545 35 49 0.0 6.4 0.00 0.00 0.00 56 1014.7
20260902220049 35 78 3.2 14.5 0.00 0.00 0.00 54 1014.7
20260902214543 35 129 3.2 14.5 0.00 0.00 0.00 51 1014.6
20260902213042 35 82 1.6 12.9 0.00 0.00 0.00 50 1014.7
20260902211540 36 80 1.6 9.7 0.00 0.00 0.00 49 1014.8
20260902210040 36 91 1.6 12.9 0.00 0.00 0.00 48 1014.9
20260902204541 36 90 1.6 6.4 0.00 0.00 0.00 50 1014.8
20260902203038 37 108 3.2 6.4 0.00 0.00 0.00 48 1015.0
20260902201537 37 105 1.6 6.4 0.00 0.00 0.00 46 1015.1
20260902200048 36 88 0.0 17.7 0.00 0.00 0.00 49 1015.3
20260902194531 36 63 3.2 12.9 0.00 0.00 0.00 49 1015.5
20260902193027 36 91 3.2 8.0 0.00 0.00 0.00 48 1015.8
20260902191530 36 71 3.2 9.7 0.00 0.00 0.00 48 1016.1
20260902190039 36 101 1.6 8.0 0.00 0.00 0.00 50 1016.3
20260902184520 36 86 3.2 9.7 0.00 0.00 0.00 51 1016.5
20260902183019 35 193 1.6 9.7 0.00 0.00 0.00 53 1016.6
20260902181518 36 255 1.6 9.7 0.00 0.00 0.00 54 1016.9
20260902180015 35 306 1.6 9.7 0.00 0.00 0.00 53 1016.9
20260902174515 35 79 3.2 9.7 0.00 0.00 0.00 54 1017.2
20260902173014 35 142 0.0 8.0 0.00 0.00 0.00 55 1017.3
20260902171614 35 109 1.6 6.4 0.00 0.00 0.00 58 1017.5
20260902170010 34 76 1.6 8.0 0.00 0.00 0.00 58 1017.7
20260902164515 35 76 0.0 6.4 0.00 0.00 0.00 56 1018.0
20260902163006 35 134 0.0 4.8 0.00 0.00 0.00 56 1018.1
20260902161507 35 89 0.0 6.4 0.00 0.00 0.00 59 1018.3
20260902160105 34 126 0.0 3.2 0.00 0.00 0.00 61 1018.4
20260902154555 33 128 0.0 3.2 0.00 0.00 0.00 60 1018.5
20260902153050 33 128 0.0 3.2 0.00 0.00 0.00 64 1018.6
20260902151545 32 129 1.6 4.8 0.00 0.00 0.00 64 1018.5
20260902150040 32 105 1.6 3.2 0.00 0.00 0.00 70 1018.5
20260902144536 32 105 0.0 3.2 0.00 0.00 0.00 71 1018.4
20260902143031 31 105 0.0 3.2 0.00 0.00 0.00 75 1018.3
20260902141535 30 105 0.0 3.2 0.00 0.00 0.00 76 1018.4
20260902140023 29 105 0.0 3.2 0.00 0.00 0.00 78 1018.5
20260902134519 28 105 0.0 0.0 0.00 0.00 0.00 82 1018.4
20260902133014 27 105 0.0 0.0 0.00 0.00 0.00 84 1018.5
20260902131510 26 105 0.0 0.0 0.00 0.00 0.00 90 1018.4
20260902130005 25 105 0.0 3.2 0.00 0.00 0.00 94 1018.4
20260902124501 24 105 0.0 0.0 0.00 0.00 0.00 97 1018.4
20260902123100 23 105 0.0 0.0 0.00 0.00 0.00 99 1018.4
20260902121600 22 105 0.0 0.0 0.00 0.00 0.00 99 1018.3
20260902120053 22 105 0.0 1.6 0.00 0.00 0.00 99 1018.2
20260902114549 22 105 0.0 0.0 0.00 0.00 0.00 98 1018.0
20260902113105 22 105 0.0 0.0 0.00 0.00 0.00 98 1017.9
20260902111552 22 105 0.0 0.0 0.00 0.00 0.00 98 1017.7
20260902110044 22 105 0.0 0.0 0.00 0.00 0.00 98 1017.6
20260902104544 22 105 0.0 0.0 0.00 0.00 0.00 98 1017.5
20260902103042 22 105 0.0 0.0 0.00 0.00 0.00 98 1017.5
20260902101541 23 105 0.0 0.0 0.00 0.00 0.00 98 1017.3